WZZ554 LPFR-EPWA

Flight info

Callsign WZZ554
Flight time N/A
Altitude 37000
Route TUPIX Y135 NAPES N747 TOSTO DCT OLPOS DCT BEGOX DCT LASPO DCT SOPET DCT DIKUT DCT TORDU DCT LOTOS DCT EBROX DCT PEXOT DCT RODRA DCT BCN DCT SALON DCT AGENA DCT BODEQ DCT LUMAS DCT UNANA DCT STP DCT RAPED DCT PIGOS DCT EKSID DCT NOSTA DCT EGHIN DCT MALUG DCT LEDVA DCT NETIR DCT KOTEK DCT LOGDA
Aircraft A21N/M-SDE2E3FGHIRWXY/LB1

Departure

Time 2026-05-07 09:18
Airport Faro - Gago Coutinho International Airport (LPFR)

Arrival

Time N/A
Airport Warsaw Chopin Airport (EPWA)
Time Latitude Longitude Altitude Speed Heading
2026-05-07 08:56 37.01921 -7.96909 23 ft 0 kts
2026-05-07 09:11 37.01908 -7.96912 24 ft 2 kts
2026-05-07 09:11 37.01892 -7.96915 23 ft 2 kts
2026-05-07 09:12 37.01876 -7.96919 25 ft 2 kts
2026-05-07 09:12 37.01860 -7.96922 24 ft 2 kts 10°
2026-05-07 09:12 37.01845 -7.96930 23 ft 2 kts 78°
2026-05-07 09:12 37.01846 -7.96950 23 ft 2 kts 99°
2026-05-07 09:13 37.01847 -7.96954 23 ft 0 kts 100°
2026-05-07 09:14 37.01839 -7.96899 25 ft 14 kts 99°
2026-05-07 09:14 37.01814 -7.96726 26 ft 25 kts 101°
2026-05-07 09:14 37.01784 -7.96520 25 ft 23 kts 102°
2026-05-07 09:14 37.01751 -7.96310 26 ft 26 kts 101°
2026-05-07 09:15 37.01727 -7.96139 27 ft 17 kts 100°
2026-05-07 09:15 37.01667 -7.96078 24 ft 11 kts 190°
2026-05-07 09:15 37.01591 -7.96096 25 ft 11 kts 185°
2026-05-07 09:15 37.01548 -7.96041 23 ft 9 kts 98°
2026-05-07 09:16 37.01537 -7.95949 26 ft 13 kts 102°
2026-05-07 09:16 37.01501 -7.95842 26 ft 13 kts 143°
2026-05-07 09:16 37.01421 -7.95841 25 ft 11 kts 189°
2026-05-07 09:16 37.01352 -7.95871 23 ft 9 kts 233°
2026-05-07 09:17 37.01354 -7.95941 26 ft 8 kts 285°
2026-05-07 09:17 37.01356 -7.95957 25 ft 0 kts 278°
2026-05-07 09:17 37.01366 -7.96034 24 ft 33 kts 279°
2026-05-07 09:17 37.01450 -7.96621 25 ft 104 kts 280°
2026-05-07 09:18 37.01618 -7.97817 43 ft 168 kts 280°
2026-05-07 09:18 37.01824 -7.99278 709 ft 168 kts 278°
2026-05-07 09:18 37.02023 -8.00701 1585 ft 164 kts 281°
2026-05-07 09:18 37.02244 -8.02166 2186 ft 184 kts 281°
2026-05-07 09:19 37.02495 -8.03845 2504 ft 209 kts 281°
2026-05-07 09:19 37.02775 -8.05734 2864 ft 233 kts 281°
2026-05-07 09:19 37.02883 -8.07814 3435 ft 248 kts 260°
2026-05-07 09:19 37.02144 -8.09751 4029 ft 259 kts 224°
2026-05-07 09:20 37.00557 -8.10826 4873 ft 261 kts 188°
2026-05-07 09:20 36.98780 -8.10560 5724 ft 263 kts 154°
2026-05-07 09:20 36.97420 -8.09102 6484 ft 268 kts 121°
2026-05-07 09:20 36.96632 -8.06936 7215 ft 274 kts 111°
2026-05-07 09:21 36.95955 -8.04708 7892 ft 282 kts 112°
2026-05-07 09:21 36.95195 -8.02413 8588 ft 289 kts 114°
2026-05-07 09:21 36.94361 -8.00097 9307 ft 296 kts 116°
2026-05-07 09:21 36.93495 -7.97812 10006 ft 301 kts 117°
2026-05-07 09:22 36.92552 -7.95395 10448 ft 318 kts 117°
2026-05-07 09:22 36.91541 -7.92843 10724 ft 338 kts 117°
2026-05-07 09:22 36.90456 -7.90131 11001 ft 358 kts 117°
2026-05-07 09:22 36.89313 -7.87281 11392 ft 373 kts 117°
2026-05-07 09:23 36.88132 -7.84345 11944 ft 382 kts 117°
2026-05-07 09:23 36.86930 -7.81362 12626 ft 387 kts 117°
2026-05-07 09:23 36.85711 -7.78339 13319 ft 392 kts 117°
2026-05-07 09:23 36.84480 -7.75293 13983 ft 396 kts 117°
2026-05-07 09:24 36.83242 -7.72199 14562 ft 402 kts 115°
2026-05-07 09:24 36.82529 -7.68813 15067 ft 408 kts 93°
2026-05-07 09:24 36.82808 -7.65293 15599 ft 411 kts 71°
2026-05-07 09:24 36.84032 -7.62089 16144 ft 409 kts 51°
2026-05-07 09:25 36.86032 -7.59621 16723 ft 404 kts 30°
2026-05-07 09:25 36.88491 -7.57945 17363 ft 403 kts 23°
2026-05-07 09:25 36.90959 -7.56232 17992 ft 408 kts 27°
2026-05-07 09:25 36.93316 -7.54234 18537 ft 413 kts 32°
2026-05-07 09:26 36.95590 -7.52006 19025 ft 418 kts 34°
2026-05-07 09:26 36.97073 -7.50440 19331 ft 421 kts 36°
2026-05-07 09:26 36.99279 -7.48003 19801 ft 425 kts 37°
2026-05-07 09:26 37.01478 -7.45497 20305 ft 428 kts 37°
2026-05-07 09:27 37.03670 -7.42956 20778 ft 431 kts 37°
2026-05-07 09:27 37.05840 -7.40340 21207 ft 437 kts 41°
2026-05-07 09:27 37.09261 -7.33869 22012 ft 456 kts 58°
2026-05-07 09:28 37.10610 -7.30242 22391 ft 462 kts 61°
2026-05-07 09:28 37.11868 -7.26515 22773 ft 467 kts 62°
2026-05-07 09:28 37.13097 -7.22736 23144 ft 470 kts 62°
2026-05-07 09:28 37.14333 -7.18917 23509 ft 475 kts 62°
2026-05-07 09:29 37.15593 -7.15066 23805 ft 478 kts 62°
2026-05-07 09:29 37.16869 -7.11217 24154 ft 480 kts 61°
2026-05-07 09:29 37.18166 -7.07342 24509 ft 483 kts 61°
2026-05-07 09:29 37.19361 -7.03382 24853 ft 490 kts 67°
2026-05-07 09:30 37.20299 -6.99254 25190 ft 494 kts 69°
2026-05-07 09:30 37.21159 -6.95067 25507 ft 497 kts 71°
2026-05-07 09:30 37.21975 -6.90830 25847 ft 500 kts 71°
2026-05-07 09:30 37.22754 -6.86634 26157 ft 503 kts 71°
2026-05-07 09:31 37.23539 -6.82344 26475 ft 505 kts 71°
2026-05-07 09:31 37.24326 -6.78038 26786 ft 507 kts 71°
2026-05-07 09:31 37.25114 -6.73735 27181 ft 506 kts 71°
2026-05-07 09:31 37.25903 -6.69436 27585 ft 505 kts 71°
2026-05-07 09:32 37.26694 -6.65141 27960 ft 504 kts 71°
2026-05-07 09:32 37.27483 -6.60861 28326 ft 504 kts 70°
2026-05-07 09:32 37.28274 -6.56572 28701 ft 504 kts 70°
2026-05-07 09:32 37.29062 -6.52286 29061 ft 503 kts 70°
2026-05-07 09:33 37.29848 -6.48009 29428 ft 503 kts 70°
2026-05-07 09:33 37.30630 -6.43740 29989 ft 499 kts 70°
2026-05-07 09:33 37.31402 -6.39499 30418 ft 496 kts 70°
2026-05-07 09:33 37.32170 -6.35281 30685 ft 496 kts 70°
2026-05-07 09:34 37.32940 -6.31055 30928 ft 496 kts 70°
2026-05-07 09:34 37.33710 -6.26822 31200 ft 496 kts 70°
2026-05-07 09:34 37.34475 -6.22604 31498 ft 495 kts 70°
2026-05-07 09:34 37.35237 -6.18384 31764 ft 495 kts 70°
2026-05-07 09:35 37.35998 -6.14169 32026 ft 494 kts 70°
2026-05-07 09:35 37.36756 -6.09957 32268 ft 494 kts 71°
2026-05-07 09:35 37.37512 -6.05750 32516 ft 494 kts 72°
2026-05-07 09:35 37.38269 -6.01531 32733 ft 494 kts 72°
2026-05-07 09:36 37.39021 -5.97323 32978 ft 494 kts 72°
2026-05-07 09:36 37.39772 -5.93112 33197 ft 493 kts 72°
2026-05-07 09:36 37.40521 -5.88903 33431 ft 493 kts 72°
2026-05-07 09:36 37.41267 -5.84705 33644 ft 492 kts 72°
2026-05-07 09:37 37.42012 -5.80501 33842 ft 492 kts 72°
2026-05-07 09:37 37.42918 -5.76371 34015 ft 486 kts 64°
2026-05-07 09:37 37.44124 -5.72474 34170 ft 484 kts 62°
2026-05-07 09:37 37.45421 -5.68568 34297 ft 485 kts 62°
2026-05-07 09:38 37.46769 -5.64669 34342 ft 487 kts 62°
2026-05-07 09:38 37.48144 -5.60761 34460 ft 487 kts 62°
2026-05-07 09:38 37.49521 -5.56864 34619 ft 487 kts 62°
2026-05-07 09:38 37.50897 -5.52966 34780 ft 487 kts 62°
2026-05-07 09:39 37.52265 -5.49071 34923 ft 487 kts 62°
2026-05-07 09:39 37.53628 -5.45173 35051 ft 487 kts 62°
2026-05-07 09:39 37.54988 -5.41269 35182 ft 487 kts 62°
2026-05-07 09:39 37.56347 -5.37360 35302 ft 487 kts 62°
2026-05-07 09:40 37.57702 -5.33449 35443 ft 487 kts 62°
2026-05-07 09:40 37.59059 -5.29533 35552 ft 487 kts 63°
2026-05-07 09:40 37.60413 -5.25618 35677 ft 487 kts 63°
2026-05-07 09:40 37.61765 -5.21705 35822 ft 487 kts 63°
2026-05-07 09:41 37.63118 -5.17787 35913 ft 487 kts 63°
2026-05-07 09:41 37.65828 -5.09927 36067 ft 489 kts 64°
2026-05-07 09:42 37.68540 -5.02039 36221 ft 490 kts 64°
2026-05-07 09:42 37.71252 -4.94133 36365 ft 491 kts 64°
2026-05-07 09:43 37.73967 -4.86200 36523 ft 493 kts 65°
2026-05-07 09:43 37.76680 -4.78242 36678 ft 493 kts 65°
2026-05-07 09:44 37.79388 -4.70269 36816 ft 494 kts 65°
2026-05-07 09:44 37.82096 -4.62271 36931 ft 496 kts 65°
2026-05-07 09:45 37.84811 -4.54236 36921 ft 497 kts 65°
2026-05-07 09:45 37.87511 -4.46198 36938 ft 496 kts 66°
2026-05-07 09:46 37.90205 -4.38165 36925 ft 495 kts 66°
2026-05-07 09:46 37.92893 -4.30139 36930 ft 495 kts 66°
2026-05-07 09:47 37.95557 -4.22168 36931 ft 495 kts 66°
2026-05-07 09:47 37.98237 -4.14124 36930 ft 495 kts 66°
2026-05-07 09:48 38.00905 -4.06091 36930 ft 495 kts 66°
2026-05-07 09:48 38.03570 -3.98049 36931 ft 495 kts 66°
2026-05-07 09:49 38.06229 -3.89999 36933 ft 495 kts 66°
2026-05-07 09:49 38.08881 -3.81950 36929 ft 495 kts 67°
2026-05-07 09:50 38.11533 -3.73880 36938 ft 496 kts 67°
2026-05-07 09:50 38.14182 -3.65792 36955 ft 496 kts 68°
2026-05-07 09:51 38.16107 -3.57412 36945 ft 493 kts 77°
2026-05-07 09:51 38.17606 -3.48902 36956 ft 493 kts 79°
2026-05-07 09:52 38.19017 -3.40374 36950 ft 493 kts 80°
2026-05-07 09:52 38.20423 -3.31838 36958 ft 493 kts 80°
2026-05-07 09:53 38.21825 -3.23363 36964 ft 493 kts 80°
2026-05-07 09:53 38.23235 -3.14841 36966 ft 493 kts 80°
2026-05-07 09:54 38.24643 -3.06309 36963 ft 493 kts 80°
2026-05-07 09:54 38.26042 -2.97779 36960 ft 492 kts 81°
2026-05-07 09:55 38.27431 -2.89268 36962 ft 491 kts 81°
2026-05-07 09:55 38.28814 -2.80756 36956 ft 491 kts 81°
2026-05-07 09:56 38.30191 -2.72234 36960 ft 491 kts 81°
2026-05-07 09:56 38.31561 -2.63720 36958 ft 490 kts 81°
2026-05-07 09:57 38.32921 -2.55225 36968 ft 489 kts 81°
2026-05-07 09:57 38.34274 -2.46731 36967 ft 489 kts 81°
2026-05-07 09:58 38.35615 -2.38237 36967 ft 488 kts 83°
2026-05-07 09:58 38.36134 -2.29729 36967 ft 484 kts 91°
2026-05-07 09:59 38.36267 -2.21157 36975 ft 484 kts 93°
2026-05-07 09:59 38.36317 -2.12574 36980 ft 485 kts 93°
2026-05-07 10:00 38.36364 -2.03980 36980 ft 485 kts 93°
2026-05-07 10:00 38.37128 -1.95435 36980 ft 491 kts 76°
2026-05-07 10:00 38.38346 -1.91365 36979 ft 494 kts 64°
2026-05-07 10:01 38.40142 -1.87627 36981 ft 496 kts 56°
2026-05-07 10:01 38.44293 -1.80547 36976 ft 500 kts 52°
2026-05-07 10:02 38.48637 -1.73608 36979 ft 501 kts 52°
2026-05-07 10:02 38.52978 -1.66640 36976 ft 501 kts 52°
2026-05-07 10:03 38.57276 -1.59639 36979 ft 501 kts 53°
2026-05-07 10:03 38.61555 -1.52616 36951 ft 500 kts 53°
2026-05-07 10:04 38.65801 -1.45624 36983 ft 502 kts 53°
2026-05-07 10:04 38.70077 -1.38572 36979 ft 501 kts 53°
2026-05-07 10:05 38.74346 -1.31518 36980 ft 501 kts 53°
2026-05-07 10:05 38.78611 -1.24460 36981 ft 501 kts 53°
2026-05-07 10:06 38.82874 -1.17391 36982 ft 501 kts 53°
2026-05-07 10:06 38.87134 -1.10311 36983 ft 501 kts 53°
2026-05-07 10:07 38.91398 -1.03207 36985 ft 502 kts 53°
2026-05-07 10:07 38.95654 -0.96102 36986 ft 501 kts 53°
2026-05-07 10:08 38.99900 -0.88996 36988 ft 501 kts 53°
2026-05-07 10:08 39.04141 -0.81883 36991 ft 501 kts 53°
2026-05-07 10:09 39.08808 -0.75343 36973 ft 501 kts 42°
2026-05-07 10:09 39.14115 -0.69458 36999 ft 505 kts 39°
2026-05-07 10:10 39.19533 -0.63710 36993 ft 504 kts 39°
2026-05-07 10:10 39.24948 -0.57977 36990 ft 503 kts 39°
2026-05-07 10:11 39.30397 -0.52283 36994 ft 503 kts 37°
2026-05-07 10:11 39.35987 -0.46840 37011 ft 503 kts 36°
2026-05-07 10:12 39.41598 -0.41453 36994 ft 501 kts 36°
2026-05-07 10:12 39.47186 -0.36045 36993 ft 501 kts 36°
2026-05-07 10:13 39.52750 -0.30618 36993 ft 501 kts 36°
2026-05-07 10:13 39.58307 -0.25177 37010 ft 501 kts 37°
2026-05-07 10:14 39.62925 -0.20646 36994 ft 500 kts 37°
2026-05-07 10:14 39.68468 -0.15198 36993 ft 500 kts 37°
2026-05-07 10:15 39.74005 -0.09747 36992 ft 500 kts 37°
2026-05-07 10:15 39.79545 -0.04281 36997 ft 500 kts 37°
2026-05-07 10:16 39.84805 0.01611 36989 ft 498 kts 45°
2026-05-07 10:16 39.89601 0.08061 36998 ft 500 kts 47°
2026-05-07 10:17 39.94355 0.14677 37050 ft 500 kts 47°
2026-05-07 10:17 39.99117 0.21281 37156 ft 499 kts 46°
2026-05-07 10:18 40.03935 0.27802 37210 ft 500 kts 45°
2026-05-07 10:18 40.08844 0.34228 37294 ft 499 kts 44°
2026-05-07 10:19 40.13857 0.40517 37333 ft 500 kts 43°
2026-05-07 10:19 40.19004 0.46663 37284 ft 502 kts 41°
2026-05-07 10:20 40.24287 0.52660 37355 ft 502 kts 39°
2026-05-07 10:20 40.29655 0.58467 37504 ft 500 kts 38°
2026-05-07 10:21 40.35124 0.64104 37499 ft 501 kts 36°
2026-05-07 10:21 40.40721 0.69580 37464 ft 503 kts 34°
2026-05-07 10:22 40.46428 0.74865 37583 ft 501 kts 33°
2026-05-07 10:22 40.52201 0.79958 37628 ft 500 kts 31°
2026-05-07 10:23 40.58068 0.84937 37529 ft 503 kts 30°
2026-05-07 10:23 40.64039 0.89764 37614 ft 502 kts 29°
2026-05-07 10:24 40.70060 0.94387 37752 ft 500 kts 27°
2026-05-07 10:24 40.76119 0.98782 37712 ft 502 kts 26°
2026-05-07 10:25 40.82336 1.03008 37678 ft 502 kts 24°
2026-05-07 10:25 40.88617 1.06988 37825 ft 499 kts 22°
2026-05-07 10:26 40.94958 1.10715 37878 ft 499 kts 20°
2026-05-07 10:26 41.01406 1.14202 37811 ft 501 kts 19°
2026-05-07 10:27 41.07928 1.17487 37847 ft 501 kts 17°
2026-05-07 10:27 41.14475 1.20608 37948 ft 499 kts 16°
2026-05-07 10:28 41.21051 1.23574 37964 ft 499 kts 15°
2026-05-07 10:28 41.27682 1.26358 37949 ft 500 kts 13°
2026-05-07 10:29 41.34346 1.28922 38047 ft 498 kts 12°
2026-05-07 10:29 41.41040 1.31253 38131 ft 496 kts 10°
2026-05-07 10:30 41.51166 1.34138 38063 ft 496 kts
2026-05-07 10:30 41.57930 1.35564 38096 ft 495 kts
2026-05-07 10:31 41.64744 1.36606 38243 ft 490 kts
2026-05-07 10:31 41.71537 1.37231 38213 ft 490 kts 359°
2026-05-07 10:32 41.78368 1.37504 38144 ft 491 kts 357°
2026-05-07 10:32 41.85175 1.37465 38326 ft 486 kts 355°
2026-05-07 10:33 41.91909 1.37141 38398 ft 484 kts 353°
2026-05-07 10:33 41.98658 1.36531 38270 ft 486 kts 351°
2026-05-07 10:34 42.05382 1.35583 38328 ft 484 kts 349°
2026-05-07 10:34 42.06464 1.35398 38367 ft 483 kts 348°